Wetbulb
58.17 58.30 58.82 59.05 59.28 59.73 60.14 60.35 60.38 60.49 60.71 61.00 61.02 60.92 61.21 61.53 60.84 53.24 48.89 54.58 56.77 63.81 59.57 52.34 51.29 50.20 48.87 47.85 48.45 45.55 36.84 34.47 37.50 39.00 40.58 42.00 41.35 43.02 42.95 42.34 43.00 46.16 42.98 43.95 45.33
56.96 57.22 57.73 58.03 58.45 58.97 59.44 59.67 59.59 59.73 60.17 60.51 60.65 60.63 60.72 60.91 54.16 50.72 58.16 64.67 65.20 64.01 52.51 49.76 47.84 48.26 44.89 46.22 46.64 42.93 35.66 37.71 41.64 41.91 40.52 42.43 42.42 42.16 40.72 40.75 41.79 43.30 42.72 44.09 45.05
56.79 56.81 56.92 56.99 57.40 58.21 58.68 58.88 58.93 59.06 59.48 59.84 60.12 60.24 60.45 58.89 49.27 49.54 63.17 65.90 64.61 62.13 53.01 50.87 49.47 48.36 43.74 44.74 44.78 43.10 39.45 42.67 44.62 44.10 43.84 42.69 41.18 43.44 41.63 40.55 42.72 43.44 43.37 42.62 41.72
56.46 56.51 56.47 56.49 56.74 57.43 58.02 58.22 58.40 58.57 58.88 59.20 59.63 60.14 60.04 54.50 38.19 50.83 63.78 64.32 64.03 54.77 51.48 48.88 47.15 44.56 42.84 42.47 45.91 40.53 44.30 44.24 46.07 45.56 43.68 42.15 42.70 42.01 42.28 46.25 45.71 45.22 44.32 42.51 41.89
56.87 56.73 56.09 55.83 56.08 56.88 57.39 57.67 57.96 58.16 58.39 58.70 59.15 60.14 54.83 45.92 47.16 55.70 62.23 61.62 55.90 52.42 49.16 47.64 45.63 44.96 42.14 42.91 43.73 42.60 43.60 45.26 45.91 45.48 43.77 43.72 43.40 42.29 41.97 44.42 45.28 44.93 43.57 43.16 43.19
56.82 56.41 56.34 55.82 55.72 56.44 56.85 57.17 57.53 58.04 58.06 58.34 58.97 59.67 47.74 39.94 50.92 55.31 53.02 52.93 51.04 49.64 47.80 47.59 46.15 46.63 43.81 43.71 42.62 42.56 43.45 44.07 44.16 44.53 43.77 43.02 41.55 42.36 46.27 43.35 44.32 44.48 43.02 42.39 43.75
56.99 56.51 56.27 56.36 56.08 56.38 56.70 56.94 57.17 57.55 57.67 58.26 59.14 57.29 49.11 44.70 51.12 52.33 51.12 49.87 49.57 48.86 46.40 46.92 46.73 44.89 43.53 42.62 44.68 43.73 41.23 41.98 43.77 43.15 42.44 42.23 39.93 39.94 46.86 42.73 43.66 43.75 42.99 42.75 43.46
57.02 56.47 56.19 56.47 56.76 56.97 57.37 57.67 57.71 57.78 57.61 58.38 59.80 53.26 42.83 51.29 49.28 49.55 49.31 48.48 49.06 48.90 48.28 48.53 48.00 45.68 43.48 44.81 42.72 38.68 37.33 34.96 40.01 41.03 41.53 42.17 37.68 43.39 44.26 43.05 43.24 42.40 42.96 41.99 43.74
56.92 56.44 56.26 56.62 56.77 56.95 57.33 57.59 57.63 57.70 57.95 59.45 52.59 47.74 43.67 53.75 48.01 49.82 48.89 47.59 48.16 48.60 48.39 50.54 47.02 42.58 42.67 37.74 34.46 33.22 31.00 32.60 38.01 42.01 40.84 39.20 37.56 43.68 42.95 41.33 41.77 42.35 41.01 43.27 43.67
57.10 56.61 56.44 56.65 56.83 57.07 57.50 57.82 56.63 55.63 55.92 56.77 54.46 44.31 46.03 45.60 49.36 48.86 47.76 48.96 46.21 46.62 44.91 44.12 41.27 37.69 37.43 34.59 29.80 30.91 30.41 33.38 34.50 38.37 37.39 36.62 37.95 42.77 42.76 40.77 40.15 40.81 41.15 40.56 43.31
57.44 57.06 56.95 56.85 57.12 57.84 55.28 48.62 43.69 42.65 46.56 43.12 43.37 43.35 45.58 48.42 49.42 47.38 48.04 47.46 46.92 42.82 37.11 39.88 35.40 33.54 38.12 38.34 39.38 33.31 32.71 32.41 36.62 39.31 37.33 37.12 39.18 41.68 44.28 42.16 40.16 41.30 43.36 43.42 41.39
57.73 57.45 57.22 57.03 57.28 57.48 49.93 45.76 43.76 44.39 37.66 44.36 43.83 45.67 47.79 48.39 44.18 45.90 47.96 42.88 41.79 37.39 38.49 36.13 33.50 39.19 39.49 38.30 37.24 36.48 35.17 35.10 38.76 40.66 36.61 37.66 38.07 41.36 42.09 43.59 44.30 43.40 43.91 44.02 45.43
57.68 57.27 56.98 56.82 56.86 51.77 46.88 44.93 48.78 47.98 38.04 41.21 43.45 42.26 42.90 47.25 43.52 44.36 45.59 41.78 38.52 36.39 36.80 36.43 37.87 41.26 39.21 36.96 36.23 35.20 34.12 35.53 35.02 36.55 35.66 34.18 35.13 36.10 39.02 42.71 44.55 44.91 45.11 45.63 44.94
57.57 57.14 56.79 56.50 51.55 48.85 45.83 47.64 48.42 46.29 29.75 35.27 40.06 42.13 44.48 45.13 39.13 44.96 44.13 42.27 37.75 36.79 35.87 35.41 40.46 39.42 36.80 35.92 37.63 34.33 38.27 37.72 36.03 31.14 30.14 33.62 29.58 34.01 36.54 38.42 40.16 42.16 43.29 44.23 45.08
57.34 57.07 56.82 55.94 48.84 47.92 48.34 48.28 46.66 41.52 26.56 38.71 39.72 46.14 44.82 39.97 38.88 39.89 41.89 40.93 36.24 36.27 36.13 35.20 35.29 35.21 35.38 38.13 38.21 37.00 37.33 35.50 32.75 29.72 28.18 30.30 27.66 32.13 37.08 36.78 38.53 41.84 42.28 43.66 45.26
57.51 57.21 56.57 53.62 50.18 51.08 50.26 47.20 43.33 33.58 28.09 35.45 39.08 38.07 38.13 38.95 38.75 39.20 39.51 41.04 39.20 36.18 36.23 36.52 37.56 37.69 37.27 37.41 37.34 36.70 34.12 32.91 29.86 28.93 27.31 30.89 30.58 30.61 31.92 36.57 37.99 41.32 43.17 43.87 44.75
56.20 56.96 54.83 55.25 50.57 51.01 50.02 45.98 39.45 31.83 37.96 35.41 35.39 37.73 35.88 35.69 36.33 36.45 35.16 34.34 33.07 29.33 28.88 32.00 34.18 36.56 38.34 33.99 34.67 34.74 31.41 24.33 21.68 20.72 24.98 31.40 28.23 35.46 35.87 37.79 39.34 40.60 41.20 43.00 44.13
54.47 56.27 54.44 55.64 52.76 51.53 49.76 44.04 34.55 38.24 35.58 39.60 37.08 35.82 34.70 36.78 36.64 35.37 32.43 30.57 33.61 30.84 28.97 27.88 29.91 33.94 36.08 37.05 33.57 32.59 33.43 24.88 16.68 22.50 29.13 26.45 25.16 32.99 38.73 40.62 40.60 40.77 41.96 42.50 39.68
54.00 55.19 53.55 54.33 52.97 52.01 46.15 37.48 38.03 41.29 41.92 39.60 40.65 34.86 32.67 35.28 35.09 33.81 31.04 30.77 34.26 35.08 31.14 28.14 30.15 33.94 35.46 35.45 37.50 30.69 28.66 36.03 25.51 12.81 17.91 28.05 32.15 37.74 35.85 37.65 38.18 39.08 39.73 36.76 37.73
50.12 51.91 51.84 54.17 53.45 49.84 41.68 39.68 41.22 43.83 44.44 43.49 38.07 38.73 31.63 33.49 34.20 35.06 34.51 34.30 34.56 36.11 39.15 35.31 30.40 35.61 32.51 33.19 32.77 33.52 34.62 26.86 26.20 17.95 14.93 25.52 26.81 31.90 36.50 38.44 38.40 37.66 37.77 37.91 37.63
48.96 45.13 49.64 54.08 51.95 44.77 37.08 38.80 40.97 45.16 44.87 41.82 39.83 39.06 37.83 36.94 37.08 36.91 36.93 36.44 37.27 37.85 38.53 36.49 33.87 33.23 31.31 30.72 33.35 28.77 28.68 29.37 30.12 29.07 26.12 24.83 29.45 40.21 38.10 36.59 35.25 37.97 38.01 37.53 37.41
46.81 38.94 51.07 52.55 42.03 42.09 39.28 41.12 43.33 42.49 44.23 43.41 41.77 41.22 39.47 39.77 38.83 39.22 38.81 40.78 39.13 38.92 35.59 37.82 34.72 30.32 32.64 37.03 33.15 32.65 33.09 34.00 28.96 27.29 29.66 30.00 30.28 42.06 42.03 41.51 41.42 41.86 38.77 38.02 37.22
42.34 43.33 50.93 50.32 37.03 38.65 40.34 40.04 42.14 41.20 41.41 41.11 40.14 40.61 41.60 38.63 35.35 38.15 39.16 43.65 44.32 41.76 38.16 38.08 34.12 29.22 29.73 33.22 35.82 33.44 35.44 34.47 34.94 33.48 28.98 26.24 29.24 42.08 42.08 41.19 41.17 36.48 38.12 40.60 39.07
38.96 33.87 42.28 44.60 44.15 39.77 37.60 37.78 37.65 41.56 40.62 42.02 40.89 41.25 38.84 36.90 39.33 36.59 37.52 41.13 40.92 41.24 43.45 42.14 36.73 32.96 28.82 32.59 34.43 29.84 32.31 34.59 33.21 28.54 29.23 29.18 31.32 36.53 39.23 40.01 41.73 41.96 42.68 42.97 41.71
35.97 32.91 37.81 33.90 37.27 38.50 39.26 37.93 35.64 35.20 40.07 40.98 39.02 38.97 36.39 34.15 34.39 34.41 34.88 33.01 35.68 41.01 39.49 38.79 32.63 34.25 34.72 35.40 35.71 35.17 34.48 34.92 32.77 32.65 28.54 31.67 32.21 35.81 38.67 40.10 42.07 42.48 43.02 40.37 40.74
31.93 31.34 33.52 32.54 33.30 34.02 36.07 34.90 35.19 36.40 37.18 36.04 35.80 31.35 33.15 29.36 31.25 28.73 32.44 30.56 29.65 33.62 32.26 33.54 29.51 32.68 30.78 34.41 33.31 31.37 33.35 34.00 33.65 34.12 34.19 34.54 33.85 40.67 41.95 42.90 42.10 42.94 43.47 42.74 43.09
34.35 37.42 34.55 29.23 28.84 26.27 26.38 29.92 30.95 30.52 33.54 36.32 30.60 27.39 27.38 29.12 30.45 30.75 31.32 30.99 30.94 29.29 28.04 29.12 28.96 26.66 22.80 30.21 30.70 27.10 32.33 32.98 33.61 35.30 34.86 30.90 36.07 40.18 39.44 40.47 40.80 41.15 39.96 36.52 35.38
MSLP
1021.25 1020.92 1020.56 1020.24 1019.87 1019.51 1019.28 1019.04 1018.83 1018.62 1018.39 1018.12 1017.81 1017.53 1017.26 1016.93 1016.72 1016.61 1015.98 1014.29 1014.36 1014.72 1015.17 1015.58 1015.81 1015.85 1016.00 1016.31 1016.42 1016.88 1017.74 1017.50 1016.10 1014.81 1013.84 1013.30 1013.44 1013.20 1013.16 1013.47 1013.77 1013.89 1014.26 1014.55 1014.89
1021.42 1021.16 1020.85 1020.51 1020.11 1019.72 1019.32 1019.03 1018.86 1018.62 1018.38 1018.05 1017.79 1017.57 1017.31 1017.02 1016.66 1015.87 1013.88 1013.81 1014.01 1014.50 1015.10 1015.45 1015.75 1015.90 1016.28 1016.38 1016.53 1017.10 1017.64 1016.42 1014.85 1013.93 1013.53 1013.27 1013.32 1013.21 1013.45 1013.46 1013.76 1013.89 1014.25 1014.95 1015.46
1021.51 1021.20 1020.87 1020.55 1020.16 1019.71 1019.33 1019.08 1018.81 1018.55 1018.25 1018.00 1017.70 1017.40 1017.18 1017.03 1016.60 1014.41 1013.46 1013.66 1013.96 1014.30 1014.53 1015.00 1015.30 1015.81 1016.30 1016.26 1016.34 1016.58 1016.48 1015.41 1014.27 1013.73 1013.42 1013.29 1013.27 1013.11 1013.34 1013.40 1013.08 1013.35 1013.98 1015.14 1015.73
1021.54 1021.21 1020.84 1020.51 1020.14 1019.72 1019.32 1018.96 1018.66 1018.39 1018.17 1017.90 1017.63 1017.35 1017.04 1016.88 1015.91 1013.67 1013.68 1013.91 1014.12 1014.45 1014.63 1014.92 1015.39 1015.89 1016.05 1016.05 1015.63 1016.11 1015.13 1014.86 1013.99 1013.47 1013.45 1013.40 1013.21 1013.21 1013.14 1011.82 1011.97 1012.36 1012.99 1014.32 1015.02
1021.30 1021.08 1020.82 1020.46 1020.11 1019.66 1019.24 1018.81 1018.48 1018.25 1018.08 1017.83 1017.55 1017.34 1016.96 1016.62 1014.84 1013.47 1013.71 1014.11 1014.48 1014.65 1014.62 1014.89 1015.26 1015.43 1015.65 1015.39 1015.37 1015.34 1014.64 1014.36 1013.73 1013.68 1013.53 1013.47 1013.24 1013.27 1012.15 1011.59 1011.99 1012.24 1012.75 1013.38 1013.89
1021.26 1020.97 1020.71 1020.34 1019.94 1019.56 1019.11 1018.70 1018.30 1018.03 1017.80 1017.59 1017.40 1017.23 1017.21 1016.15 1013.36 1013.35 1013.63 1014.18 1014.25 1014.60 1014.61 1014.78 1014.74 1014.77 1015.18 1015.11 1015.20 1014.60 1014.52 1014.19 1013.79 1013.71 1013.67 1013.77 1013.14 1013.30 1010.33 1011.04 1011.59 1011.98 1012.22 1012.56 1012.73
1021.03 1020.84 1020.52 1020.20 1019.75 1019.26 1018.78 1018.37 1017.97 1017.70 1017.45 1017.28 1017.24 1017.20 1016.76 1014.16 1013.17 1013.63 1013.86 1013.91 1013.90 1014.14 1014.41 1014.55 1014.58 1014.89 1015.14 1015.07 1014.81 1014.82 1014.91 1014.26 1013.23 1013.23 1013.61 1013.60 1013.28 1012.40 1009.83 1011.11 1011.33 1011.37 1011.29 1011.55 1011.39
1020.71 1020.54 1020.22 1019.87 1019.50 1018.92 1018.28 1017.76 1017.34 1017.11 1016.95 1016.89 1016.86 1017.06 1015.64 1013.51 1013.46 1013.71 1013.92 1013.97 1014.00 1014.09 1014.29 1014.42 1014.53 1015.01 1015.41 1015.29 1015.27 1015.52 1015.51 1015.04 1012.78 1012.95 1013.07 1013.44 1011.83 1010.20 1010.18 1011.00 1010.88 1010.70 1010.84 1010.95 1010.39
1020.44 1020.27 1019.92 1019.58 1019.16 1018.57 1017.80 1017.07 1016.62 1016.36 1016.36 1016.58 1016.88 1016.62 1015.03 1013.60 1013.68 1013.33 1013.63 1013.97 1014.08 1014.31 1014.56 1014.75 1014.83 1015.39 1015.67 1016.02 1016.56 1016.27 1015.77 1015.13 1013.45 1012.63 1013.00 1013.16 1011.84 1009.70 1009.79 1010.52 1010.44 1010.27 1010.12 1010.00 1009.58
1020.15 1020.11 1019.75 1019.31 1018.88 1018.21 1017.41 1016.39 1016.10 1016.07 1016.40 1016.48 1016.31 1016.67 1014.22 1013.22 1013.02 1013.23 1013.47 1013.85 1014.28 1014.66 1015.04 1015.26 1015.82 1016.11 1016.34 1016.49 1016.33 1015.66 1015.99 1015.11 1014.30 1012.79 1013.05 1012.88 1011.51 1010.08 1009.66 1010.19 1010.05 1009.91 1009.43 1009.06 1008.70
1019.83 1019.77 1019.57 1019.17 1018.73 1018.11 1017.33 1016.53 1016.69 1016.79 1016.38 1015.47 1015.14 1014.25 1013.11 1012.81 1012.83 1013.13 1013.24 1013.83 1014.46 1015.05 1015.62 1015.86 1016.45 1015.93 1015.11 1015.04 1014.84 1015.44 1015.34 1015.04 1013.72 1012.82 1012.98 1012.23 1011.33 1010.51 1009.45 1009.29 1009.14 1008.97 1008.32 1007.78 1007.21
1019.44 1019.44 1019.36 1018.99 1018.51 1018.00 1017.84 1018.09 1018.44 1018.90 1017.21 1014.95 1014.22 1013.82 1012.47 1012.53 1013.00 1013.32 1013.46 1014.11 1014.60 1015.12 1015.51 1016.10 1015.48 1014.55 1014.72 1014.89 1015.20 1015.23 1015.08 1014.24 1012.97 1012.43 1012.76 1011.83 1010.21 1009.52 1009.23 1008.02 1007.45 1007.42 1006.66 1005.97 1005.49
1019.10 1019.14 1019.17 1018.98 1018.68 1018.23 1018.44 1018.60 1018.33 1018.57 1018.29 1014.97 1013.43 1012.82 1012.24 1012.33 1012.53 1012.96 1013.60 1013.98 1014.50 1015.13 1014.99 1014.64 1013.82 1013.76 1014.41 1014.71 1014.86 1014.14 1014.60 1013.33 1013.19 1012.89 1012.28 1011.47 1008.48 1008.85 1008.08 1006.85 1006.02 1005.33 1004.84 1004.60 1004.24
1018.88 1018.83 1019.03 1018.90 1019.00 1018.76 1018.44 1018.35 1018.32 1018.28 1018.16 1014.61 1012.98 1012.29 1012.13 1012.10 1012.88 1013.04 1013.28 1013.55 1014.36 1014.40 1014.98 1014.34 1013.14 1013.26 1013.49 1013.72 1013.61 1013.38 1012.83 1013.15 1013.36 1013.76 1012.96 1012.03 1004.99 1007.11 1007.13 1006.28 1005.35 1004.35 1003.54 1003.39 1003.20
1018.57 1018.55 1018.79 1018.95 1019.00 1018.80 1018.21 1018.23 1018.21 1018.36 1017.08 1013.33 1012.60 1012.25 1012.31 1012.58 1013.28 1013.43 1013.47 1013.68 1013.76 1013.87 1014.45 1013.14 1012.76 1012.88 1013.31 1012.14 1012.91 1012.11 1012.22 1012.91 1013.40 1013.69 1013.12 1012.16 1011.16 1006.22 1005.45 1005.34 1004.58 1003.51 1002.94 1002.41 1001.74
1018.01 1018.12 1018.53 1018.99 1019.12 1017.94 1017.85 1018.10 1018.36 1017.99 1015.77 1012.95 1012.14 1012.34 1012.69 1012.86 1013.31 1013.53 1013.37 1013.83 1014.41 1014.10 1013.63 1012.58 1011.89 1011.92 1011.36 1011.40 1012.19 1012.41 1012.95 1013.36 1014.09 1014.31 1012.22 1011.16 1010.76 1002.81 1004.94 1003.96 1003.21 1002.60 1002.09 1001.70 1001.12
1017.74 1017.87 1018.51 1018.32 1018.51 1017.83 1017.97 1018.00 1018.00 1016.40 1013.96 1012.59 1012.19 1012.46 1012.76 1013.19 1013.30 1013.53 1013.83 1013.98 1014.47 1014.64 1013.56 1012.44 1011.83 1010.97 1011.12 1011.70 1012.02 1012.55 1013.64 1014.80 1014.92 1015.02 1011.40 1009.21 1008.64 1002.83 1003.64 1002.74 1002.39 1002.06 1001.43 1000.70 1000.48
1017.38 1017.86 1017.72 1017.79 1017.76 1018.18 1018.08 1018.33 1016.17 1013.90 1013.25 1012.10 1012.22 1012.68 1012.90 1012.74 1012.78 1013.40 1013.75 1013.94 1013.99 1014.04 1013.83 1013.07 1010.57 1010.91 1010.75 1010.82 1010.80 1011.77 1012.76 1013.57 1013.45 1012.67 1010.33 1009.66 1006.21 1002.44 1001.58 1001.17 1001.15 1000.91 1001.02 1000.75 1000.35
1017.87 1017.48 1017.45 1017.18 1017.64 1017.96 1018.44 1017.22 1014.97 1013.23 1012.93 1012.56 1012.32 1012.36 1012.64 1012.41 1012.48 1012.93 1013.60 1013.10 1012.59 1012.73 1013.23 1012.57 1010.61 1010.31 1010.28 1010.37 1010.86 1011.22 1011.74 1011.20 1012.11 1011.56 1011.08 1007.50 1004.26 1002.55 1001.71 1001.43 1001.65 1001.21 1000.95 1000.97 1000.58
1018.00 1017.42 1016.72 1016.64 1017.00 1017.98 1018.08 1015.66 1014.43 1013.32 1012.63 1012.68 1012.55 1012.41 1012.39 1012.41 1012.65 1012.73 1012.47 1011.85 1011.71 1011.64 1011.61 1011.44 1010.89 1009.76 1010.17 1010.41 1010.66 1010.61 1010.52 1011.05 1011.75 1011.99 1009.86 1006.63 1004.53 1001.93 1001.71 1001.22 1001.21 1001.56 1001.03 1000.65 1000.75
1018.29 1017.35 1016.00 1015.89 1016.77 1017.24 1016.10 1014.55 1013.58 1013.12 1013.06 1012.77 1012.32 1012.32 1011.76 1012.26 1012.19 1012.22 1011.67 1011.21 1011.44 1011.12 1011.35 1011.79 1012.34 1010.30 1011.01 1010.22 1009.85 1010.86 1010.29 1010.45 1010.11 1009.50 1007.75 1005.84 1003.77 1000.16 1000.84 1000.89 1000.87 1000.94 1001.10 1000.98 1000.82
1018.01 1017.17 1015.75 1015.95 1016.64 1015.64 1014.72 1014.02 1013.69 1013.06 1013.12 1012.67 1012.41 1012.39 1012.08 1011.93 1011.78 1011.90 1011.05 1010.70 1010.72 1011.04 1011.17 1011.34 1011.91 1011.66 1010.23 1009.76 1009.74 1010.30 1009.58 1009.11 1008.42 1007.03 1005.76 1004.42 1002.71 1000.91 999.54 999.81 1000.16 1000.19 1000.64 1000.12 1000.00
1018.05 1016.68 1015.92 1015.81 1015.17 1015.13 1014.44 1013.67 1013.42 1013.25 1013.14 1012.89 1012.56 1012.32 1012.28 1011.88 1012.05 1011.04 1010.52 1010.38 1010.62 1011.09 1011.22 1011.67 1011.52 1011.18 1010.65 1010.50 1008.88 1008.85 1007.93 1008.10 1007.09 1005.96 1004.48 1003.06 1000.86 999.65 999.77 999.09 998.94 999.36 999.71 999.72 999.88
1018.66 1017.28 1016.02 1015.56 1015.11 1014.89 1014.41 1013.36 1013.38 1012.94 1012.88 1013.02 1012.95 1012.69 1012.66 1012.61 1011.79 1011.22 1010.86 1010.75 1010.77 1010.63 1011.06 1011.26 1011.15 1010.16 1009.47 1008.68 1008.47 1007.81 1006.67 1006.32 1006.11 1005.14 1003.05 1001.53 1000.53 1000.50 998.85 998.46 997.33 998.67 999.01 999.73 999.87
1019.12 1017.62 1016.68 1015.65 1015.44 1015.03 1015.13 1014.11 1013.68 1013.16 1013.07 1013.08 1013.06 1013.26 1013.74 1013.25 1012.87 1012.07 1012.77 1012.97 1012.52 1012.13 1011.49 1010.96 1010.03 1009.46 1008.57 1008.08 1007.88 1006.88 1006.06 1005.47 1004.82 1003.11 1002.34 1000.85 999.93 999.84 998.76 997.36 997.11 998.42 998.73 999.60 999.56
1019.49 1018.54 1017.84 1016.85 1016.36 1015.78 1015.14 1014.43 1014.68 1014.15 1014.35 1013.74 1014.11 1015.04 1015.38 1015.02 1015.26 1014.99 1014.98 1015.04 1014.56 1013.33 1013.44 1012.91 1011.05 1009.95 1008.71 1008.87 1007.69 1006.70 1005.43 1004.49 1003.50 1002.74 1001.48 1000.84 999.65 999.43 998.28 998.24 998.22 998.21 999.21 1000.04 999.42
1019.35 1019.12 1018.65 1017.53 1017.00 1016.76 1016.12 1015.78 1015.81 1015.62 1015.49 1015.38 1015.79 1016.06 1016.17 1016.28 1016.14 1016.27 1016.44 1015.93 1015.68 1015.33 1013.81 1013.83 1012.33 1011.03 1008.56 1009.15 1008.08 1006.52 1005.45 1004.40 1003.32 1002.66 1002.08 1001.15 999.42 1000.00 1000.02 999.82 999.52 1000.03 1001.17 1001.82 1002.08
Wind_Speed
15 16 16 16 16 15 15 15 14 14 13 13 13 13 11 8 7 1 6 10 6 13 5 6 1 2 3 1 2 3 3 3 6 3 4 1 3 1 1 3 3 6 4 3 8
14 14 16 16 16 17 16 16 16 15 14 14 14 14 12 8 1 8 9 7 9 15 6 7 4 4 0 2 1 4 4 9 6 2 4 3 5 4 2 3 4 5 1 4 12
12 13 14 15 16 16 17 17 16 16 15 15 15 13 11 5 4 8 3 12 13 11 6 6 4 6 3 3 4 5 7 6 6 4 4 3 3 5 5 7 10 11 7 8 6
11 12 13 15 15 16 17 17 17 16 16 15 15 14 12 1 6 1 6 8 9 5 6 4 4 5 5 6 6 4 10 7 6 3 3 4 1 5 9 18 6 12 7 10 14
6 7 9 13 15 17 18 18 17 16 15 14 13 11 4 0 12 6 8 7 5 6 7 7 6 6 6 5 2 7 6 6 7 7 6 3 10 8 11 13 10 7 8 16 16
8 8 9 11 13 16 18 19 19 17 16 14 12 5 1 4 2 8 9 7 5 5 5 7 8 7 4 5 7 3 4 7 6 7 5 5 7 5 20 4 13 11 13 13 19
8 9 10 12 14 16 18 19 19 18 17 15 9 2 3 16 1 6 8 5 4 5 4 3 2 3 0 5 3 4 8 8 11 7 10 6 10 14 27 3 10 12 12 13 20
9 9 11 12 14 17 19 20 19 18 17 13 6 3 8 2 4 5 4 1 0 3 2 1 3 2 2 4 7 4 2 5 0 6 4 10 17 14 10 8 16 13 12 10 16
9 10 12 13 15 18 20 22 20 16 6 4 4 4 9 1 2 5 5 3 4 3 4 3 3 4 2 3 5 2 7 9 15 11 6 8 12 13 6 9 12 12 11 13 15
9 10 12 13 16 19 22 22 7 2 2 2 2 2 4 6 4 4 4 6 3 5 3 3 4 2 1 4 10 9 6 6 9 3 4 8 16 16 9 8 12 11 11 11 15
10 10 12 13 16 20 13 5 5 2 1 9 6 6 2 2 2 5 4 7 5 4 6 4 5 12 21 17 15 2 6 7 9 6 5 11 18 20 21 11 13 15 19 17 16
9 9 12 13 15 20 3 5 1 2 9 7 12 10 9 5 4 4 5 7 6 8 6 2 12 18 7 6 9 12 17 22 18 20 7 16 24 17 14 20 19 17 20 22 18
9 9 10 13 14 4 2 2 1 5 3 11 7 6 6 9 10 7 11 4 5 7 10 16 10 12 12 9 11 13 14 19 18 6 6 11 22 16 12 21 23 22 21 20 21
10 9 8 12 3 3 2 2 2 3 3 9 4 4 1 5 2 4 1 5 3 10 8 9 11 14 8 9 15 16 14 15 14 2 11 3 32 7 8 15 13 17 18 19 20
10 10 7 3 3 3 1 3 3 3 7 5 3 1 2 5 1 4 1 3 5 4 5 10 4 6 11 21 10 14 5 6 3 5 5 7 11 6 12 12 14 17 14 17 20
6 8 6 2 2 5 2 2 2 4 10 5 2 2 3 1 0 1 4 4 2 4 6 12 3 6 10 6 8 2 3 4 5 2 15 13 12 5 7 11 7 10 16 16 18
7 5 8 2 2 1 1 1 2 7 1 5 6 5 4 5 4 6 6 7 7 3 6 3 7 5 6 3 3 4 6 5 5 1 15 9 10 21 6 6 12 13 14 15 16
7 5 7 3 5 2 4 1 13 9 7 2 2 2 6 7 7 6 5 4 6 1 3 2 15 9 5 12 10 11 12 9 10 12 19 4 13 13 13 11 10 12 13 14 11
11 2 2 4 6 2 3 7 4 4 5 4 5 4 6 5 6 5 6 6 8 16 11 6 15 2 5 4 10 4 8 16 2 1 2 8 15 14 6 8 8 11 13 12 13
3 2 4 6 11 4 4 18 9 6 3 3 6 7 6 5 5 4 6 4 5 11 10 5 13 7 3 2 3 8 4 3 1 4 8 11 7 16 16 14 10 10 12 12 9
3 3 2 11 5 3 13 9 6 5 2 6 5 11 9 7 6 9 8 4 5 2 9 2 2 19 1 7 12 1 4 5 3 6 15 18 16 28 16 9 8 11 10 9 10
3 5 4 9 6 4 14 6 7 7 6 8 4 14 18 17 19 21 21 16 2 5 7 5 7 11 25 14 3 4 12 13 13 14 12 17 18 28 31 25 18 24 14 7 6
3 3 4 3 9 12 5 7 8 15 14 5 9 9 13 21 19 24 23 20 18 8 6 7 3 6 4 10 14 15 22 17 18 18 24 24 21 28 24 24 17 12 12 14 10
3 3 4 3 7 7 13 16 16 6 14 14 16 11 16 22 23 24 28 13 9 12 16 9 18 18 21 21 11 9 12 22 22 19 24 23 25 23 32 28 31 18 19 18 14
2 4 2 3 10 12 11 5 13 18 7 2 6 14 14 11 9 9 8 10 12 16 7 9 23 22 25 30 29 30 30 27 26 27 27 25 30 25 28 32 30 16 18 8 13
2 1 4 4 5 3 5 14 19 12 8 9 9 5 5 4 5 8 6 5 5 7 7 7 8 13 20 22 25 29 30 33 35 37 37 37 34 28 29 27 29 26 24 19 15
2 2 1 3 2 2 3 4 2 5 4 6 6 7 9 5 8 12 14 16 17 18 21 12 9 11 23 19 18 22 27 33 34 33 29 32 34 25 27 26 25 20 15 16 16
Wind_Direction
20 15 12 8 5 4 1 358 355 353 351 347 346 346 340 331 309 241 240 218 185 163 143 121 161 189 91 299 201 97 61 251 251 219 264 359 240 309 318 135 227 208 177 317 134
16 10 5 0 358 354 352 350 347 347 344 342 342 342 340 337 245 242 242 186 149 147 131 155 169 134 60 237 221 115 149 226 218 233 239 236 196 226 201 214 246 272 75 79 141
7 3 358 353 348 346 343 341 340 338 339 338 336 337 332 322 327 244 196 168 158 170 149 159 118 139 218 166 206 184 214 222 263 247 203 227 243 201 200 248 216 211 200 162 167
353 350 348 342 337 336 334 332 330 331 332 333 333 332 324 197 286 272 156 157 156 166 133 160 156 171 213 213 203 210 238 219 263 250 272 230 240 244 196 241 209 228 176 168 183
325 329 330 331 328 327 326 323 322 322 322 322 326 333 332 242 249 154 141 150 140 152 178 174 172 175 201 207 229 225 248 227 235 269 261 297 245 238 251 247 243 248 175 188 198
314 317 314 316 321 319 319 318 316 315 314 312 315 323 117 248 239 157 151 146 186 174 194 165 203 206 234 228 190 256 263 268 267 239 250 208 268 143 263 222 237 227 218 206 206
301 307 305 304 310 309 309 308 305 305 305 303 295 226 178 233 245 163 155 190 179 178 190 220 199 151 259 288 284 301 306 308 249 229 231 155 285 227 248 175 252 248 234 216 220
294 302 302 304 303 305 304 304 302 298 295 286 220 176 242 327 121 139 174 276 230 187 136 35 125 167 193 306 356 312 335 314 301 139 235 145 263 252 247 202 252 248 255 238 236
289 296 298 304 305 306 307 304 302 294 274 181 134 167 260 106 182 211 148 187 123 73 49 65 97 173 344 97 354 286 243 225 295 196 160 182 246 270 239 199 248 260 249 250 252
280 287 293 299 305 308 312 306 280 16 99 187 262 30 268 229 195 165 178 148 130 108 76 114 61 161 347 124 227 221 223 253 244 244 185 222 249 273 264 199 237 258 267 253 254
274 279 289 298 308 315 334 360 12 13 1 193 203 229 258 141 92 200 161 128 109 102 174 198 133 207 222 212 234 203 227 243 256 247 225 229 236 247 265 262 252 253 253 250 244
272 282 292 301 312 320 345 67 130 207 304 259 247 255 255 172 210 230 122 149 151 198 151 158 214 225 235 208 221 242 257 262 270 264 212 259 258 249 249 261 256 247 257 251 251
271 280 289 300 313 347 5 146 203 143 238 285 228 213 238 163 224 221 151 151 170 182 201 219 224 212 216 230 241 227 232 251 256 301 248 289 268 249 244 250 265 262 249 258 247
267 267 274 300 328 325 260 214 164 125 360 273 263 279 8 163 261 27 312 162 197 229 207 237 239 215 187 217 215 256 227 254 261 285 272 124 293 194 230 243 243 252 256 244 248
261 254 242 224 287 310 231 203 140 84 299 251 218 316 48 143 129 7 351 28 211 196 163 243 208 189 221 234 179 252 166 231 215 214 338 181 269 147 201 249 247 253 248 257 259
271 261 199 199 251 240 174 148 83 54 250 292 173 138 100 84 22 64 93 43 282 255 225 239 203 188 210 193 204 98 59 37 65 119 263 199 208 94 179 212 241 252 253 248 254
341 273 177 153 251 359 209 43 284 218 315 249 215 171 175 194 212 178 164 165 197 266 240 312 227 213 160 224 139 131 90 301 324 6 254 191 218 250 275 215 214 237 256 253 251
346 262 216 200 148 259 45 264 224 185 229 334 111 113 190 157 239 182 151 225 242 226 320 262 292 176 179 200 192 205 186 179 204 248 269 106 251 262 220 237 228 236 257 270 281
319 200 202 205 151 109 110 226 248 216 202 228 326 250 221 239 209 140 215 226 211 183 192 207 268 167 198 163 152 176 179 234 326 108 19 246 276 287 229 270 310 277 279 263 263
322 255 209 176 148 121 193 246 246 229 261 259 230 204 208 189 186 175 188 191 227 186 229 279 269 225 151 121 278 183 167 117 186 203 247 268 248 259 284 285 289 295 300 297 312
255 241 234 141 128 174 226 232 223 218 191 220 238 250 248 251 239 249 232 224 219 197 177 78 326 270 166 210 234 181 248 230 181 195 246 261 263 278 277 273 260 298 286 291 304
260 237 160 155 184 208 232 214 227 242 239 254 250 261 264 270 260 256 254 243 227 222 199 170 175 235 263 261 301 271 265 241 235 244 233 254 255 264 268 269 272 289 289 295 280
242 249 185 236 222 224 212 234 233 246 235 224 245 231 251 254 268 254 255 254 249 230 236 182 222 267 260 291 250 230 245 241 256 259 249 253 250 257 270 271 260 240 264 285 281
296 261 198 217 250 257 245 247 244 230 250 241 254 261 273 270 261 270 271 272 234 230 239 238 246 238 253 264 279 266 224 238 242 254 252 246 260 262 271 265 271 265 268 273 272
254 244 325 213 233 248 247 275 269 266 237 167 241 245 269 273 295 299 330 9 348 316 277 244 241 234 244 251 254 256 265 259 251 246 249 253 250 246 256 270 276 281 283 278 279
245 296 333 292 298 274 248 237 257 269 259 251 248 25 324 269 324 312 335 19 285 312 328 313 287 296 282 272 257 250 248 252 261 259 260 261 260 262 260 266 277 278 283 285 277
280 337 309 269 334 95 228 267 306 37 268 251 13 337 292 302 327 297 286 269 251 267 277 266 272 284 278 289 297 275 257 259 258 261 256 258 256 267 268 262 270 299 359 25 13